{"data":{"norad_id":47830,"epoch":"2026-09-20T00:09:58.465152Z","epoch_age_seconds":72880,"freshness":"FRESH","line1":"1 47830U 21018AV  26263.00692668  .00002046  00000+0  77637-4 0  9995","line2":"2 47830  53.1599  71.3044 0001166  95.4985 264.6149 15.31713460306315","mean_motion":15.3171346,"eccentricity":0.0001166,"inclination_deg":53.1599,"raan_deg":71.3044,"arg_perigee_deg":95.4985,"mean_anomaly_deg":264.6149,"bstar":7.7637e-5,"rev_number":30631,"period_min":94.012361816028,"perigee_km":469.9012975806,"apogee_km":471.49844633914,"semimajor_km":6848.8368719599,"source":"CELESTRAK","updated_at":"2026-09-20T09:00:38.751455Z"}}